SUR2106 KPAE-KPAE

Flight info

Callsign SUR2106
Flight time 0h 45m
Altitude 30000
Route PERLL ARRIE J523 TOU RMOHR WATTR WEBVE
Aircraft B789/H-S/N

Departure

Time 2026-04-29 17:18
Airport Seattle Paine Field International Airport (KPAE)

Arrival

Time 2026-04-29 18:03
Airport Seattle Paine Field International Airport (KPAE)
Time Latitude Longitude Altitude Speed Heading
2026-04-29 16:54 47.91654 -122.29069 623 ft 0 kts 268°
2026-04-29 16:57 47.89862 -122.28374 624 ft 188 kts 254°
2026-04-29 16:57 47.94217 -122.29377 645 ft 18602 kts 254°
2026-04-29 16:57 47.91654 -122.29069 624 ft 0 kts 268°
2026-04-29 16:58 47.91657 -122.29080 623 ft 6 kts 294°
2026-04-29 16:58 47.91857 -122.29075 623 ft 49 kts 32°
2026-04-29 16:58 47.92055 -122.28593 623 ft 59 kts 86°
2026-04-29 16:59 47.91952 -122.28297 623 ft 22 kts 130°
2026-04-29 16:59 47.91923 -122.28208 623 ft 2 kts 97°
2026-04-29 16:59 47.91924 -122.28212 623 ft 2 kts 97°
2026-04-29 16:59 47.91926 -122.28237 623 ft 3 kts 97°
2026-04-29 17:00 47.91927 -122.28252 623 ft 0 kts 97°
2026-04-29 17:01 47.91927 -122.28251 623 ft 0 kts 97°
2026-04-29 17:01 47.91927 -122.28249 623 ft 1 kts 97°
2026-04-29 17:02 47.91927 -122.28237 623 ft 0 kts 91°
2026-04-29 17:07 47.91927 -122.28236 624 ft 0 kts 91°
2026-04-29 17:10 47.91927 -122.28235 623 ft 0 kts 91°
2026-04-29 17:11 47.91927 -122.28234 623 ft 1 kts 91°
2026-04-29 17:12 47.91926 -122.28194 624 ft 7 kts 91°
2026-04-29 17:12 47.91934 -122.28141 624 ft 1 kts 57°
2026-04-29 17:12 47.91936 -122.28139 624 ft 0 kts 54°
2026-04-29 17:12 47.91942 -122.28130 624 ft 5 kts 41°
2026-04-29 17:13 47.91999 -122.28142 623 ft 3 kts 304°
2026-04-29 17:13 47.92004 -122.28220 624 ft 14 kts 272°
2026-04-29 17:13 47.92003 -122.28346 624 ft 9 kts 267°
2026-04-29 17:13 47.92002 -122.28401 624 ft 3 kts 270°
2026-04-29 17:14 47.92001 -122.28459 624 ft 5 kts 268°
2026-04-29 17:14 47.92001 -122.28476 624 ft 0 kts 267°
2026-04-29 17:14 47.92001 -122.28477 624 ft 0 kts 267°
2026-04-29 17:15 47.92001 -122.28478 624 ft 0 kts 267°
2026-04-29 17:16 47.92000 -122.28498 624 ft 6 kts 267°
2026-04-29 17:16 47.91994 -122.28561 624 ft 2 kts 249°
2026-04-29 17:16 47.91993 -122.28565 624 ft 0 kts 241°
2026-04-29 17:16 47.91987 -122.28574 624 ft 4 kts 226°
2026-04-29 17:17 47.91969 -122.28581 624 ft 1 kts 181°
2026-04-29 17:17 47.91962 -122.28581 624 ft 14 kts 182°
2026-04-29 17:17 47.91352 -122.28582 624 ft 158 kts 176°
2026-04-29 17:17 47.89896 -122.28493 1195 ft 241 kts 180°
2026-04-29 17:18 47.88036 -122.28434 2743 ft 295 kts 181°
2026-04-29 17:18 47.85695 -122.28662 2963 ft 391 kts 190°
2026-04-29 17:18 47.83141 -122.29948 3160 ft 341 kts 207°
2026-04-29 17:18 47.81418 -122.31615 3562 ft 263 kts 219°
2026-04-29 17:19 47.80151 -122.33277 4149 ft 232 kts 224°
2026-04-29 17:19 47.79022 -122.34918 4835 ft 225 kts 225°
2026-04-29 17:19 47.77935 -122.36538 5515 ft 219 kts 225°
2026-04-29 17:19 47.76867 -122.38115 6191 ft 215 kts 224°
2026-04-29 17:20 47.75790 -122.39678 6734 ft 219 kts 223°
2026-04-29 17:20 47.74673 -122.41268 7122 ft 228 kts 223°
2026-04-29 17:20 47.73512 -122.42890 7577 ft 229 kts 221°
2026-04-29 17:20 47.72349 -122.44476 8176 ft 224 kts 220°
2026-04-29 17:21 47.71190 -122.46021 8684 ft 225 kts 222°
2026-04-29 17:21 47.70011 -122.47552 9108 ft 227 kts 221°
2026-04-29 17:21 47.68822 -122.49057 9639 ft 224 kts 220°
2026-04-29 17:21 47.67626 -122.50530 10118 ft 223 kts 219°
2026-04-29 17:22 47.66415 -122.51983 10551 ft 225 kts 218°
2026-04-29 17:22 47.65185 -122.53420 10969 ft 227 kts 217°
2026-04-29 17:22 47.63932 -122.54840 11392 ft 228 kts 216°
2026-04-29 17:22 47.62661 -122.56238 11831 ft 227 kts 215°
2026-04-29 17:23 47.61379 -122.57603 12256 ft 228 kts 214°
2026-04-29 17:23 47.60081 -122.58945 12696 ft 226 kts 214°
2026-04-29 17:23 47.58791 -122.60242 13176 ft 225 kts 214°
2026-04-29 17:23 47.57669 -122.61802 13669 ft 219 kts 236°
2026-04-29 17:24 47.57194 -122.63829 14310 ft 202 kts 268°
2026-04-29 17:24 47.57454 -122.65752 14930 ft 184 kts 299°
2026-04-29 17:24 47.58040 -122.67374 15390 ft 175 kts 304°
2026-04-29 17:24 47.58609 -122.68864 14709 ft 168 kts 306°
2026-04-29 17:25 47.59229 -122.70441 12692 ft 186 kts 303°
2026-04-29 17:25 47.59920 -122.72250 11207 ft 226 kts 304°
2026-04-29 17:25 47.60533 -122.73656 10829 ft 256 kts 307°
2026-04-29 17:25 47.61604 -122.75860 10491 ft 279 kts 308°
2026-04-29 17:26 47.62862 -122.78186 10122 ft 306 kts 310°
2026-04-29 17:26 47.64363 -122.80751 10709 ft 346 kts 313°
2026-04-29 17:26 47.65845 -122.83613 11416 ft 350 kts 305°
2026-04-29 17:26 47.67094 -122.86668 12120 ft 347 kts 301°
2026-04-29 17:27 47.68228 -122.89818 12826 ft 346 kts 299°
2026-04-29 17:27 47.69303 -122.93007 13529 ft 345 kts 298°
2026-04-29 17:27 47.70350 -122.96215 14231 ft 346 kts 297°
2026-04-29 17:27 47.71381 -122.99428 14913 ft 347 kts 297°
2026-04-29 17:28 47.72420 -123.02659 15584 ft 349 kts 296°
2026-04-29 17:28 47.73473 -123.05921 16276 ft 351 kts 298°
2026-04-29 17:28 47.74536 -123.09195 16954 ft 353 kts 299°
2026-04-29 17:28 47.75607 -123.12475 17630 ft 354 kts 299°
2026-04-29 17:29 47.76693 -123.15749 18287 ft 355 kts 300°
2026-04-29 17:29 47.77794 -123.19042 18923 ft 357 kts 300°
2026-04-29 17:29 47.78915 -123.22340 19538 ft 358 kts 301°
2026-04-29 17:29 47.80046 -123.25638 20133 ft 360 kts 301°
2026-04-29 17:30 47.81199 -123.28944 20712 ft 361 kts 302°
2026-04-29 17:30 47.82365 -123.32246 21270 ft 361 kts 302°
2026-04-29 17:30 47.83540 -123.35547 21810 ft 362 kts 302°
2026-04-29 17:30 47.84732 -123.38829 22334 ft 362 kts 303°
2026-04-29 17:31 47.85941 -123.42118 22841 ft 362 kts 303°
2026-04-29 17:31 47.87161 -123.45404 23332 ft 363 kts 303°
2026-04-29 17:31 47.88400 -123.48673 23811 ft 363 kts 303°
2026-04-29 17:31 47.89634 -123.51938 24270 ft 363 kts 303°
2026-04-29 17:32 47.90870 -123.55226 24722 ft 364 kts 303°
2026-04-29 17:32 47.92105 -123.58525 25161 ft 365 kts 303°
2026-04-29 17:32 47.93343 -123.61844 25589 ft 367 kts 303°
2026-04-29 17:32 47.94577 -123.65165 26010 ft 369 kts 303°
2026-04-29 17:33 47.95820 -123.68518 26417 ft 371 kts 303°
2026-04-29 17:33 47.97067 -123.71893 26819 ft 373 kts 303°
2026-04-29 17:33 47.98318 -123.75291 27212 ft 375 kts 303°
2026-04-29 17:33 47.99571 -123.78692 27590 ft 376 kts 303°
2026-04-29 17:34 48.00841 -123.82116 27967 ft 378 kts 303°
2026-04-29 17:34 48.02121 -123.85558 28335 ft 380 kts 303°
2026-04-29 17:34 48.03408 -123.89015 28690 ft 382 kts 303°
2026-04-29 17:34 48.04698 -123.92487 29025 ft 384 kts 303°
2026-04-29 17:35 48.06859 -123.98313 29536 ft 387 kts 303°
2026-04-29 17:35 48.08096 -124.01655 29822 ft 388 kts 303°
2026-04-29 17:35 48.09396 -124.05208 30119 ft 390 kts 303°
2026-04-29 17:36 48.10684 -124.08792 30261 ft 392 kts 302°
2026-04-29 17:36 48.11962 -124.12380 30383 ft 393 kts 302°
2026-04-29 17:36 48.13257 -124.15987 30390 ft 394 kts 302°
2026-04-29 17:37 48.15837 -124.23238 30375 ft 396 kts 302°
2026-04-29 17:37 48.18438 -124.30512 30361 ft 396 kts 302°
2026-04-29 17:38 48.21036 -124.37777 30358 ft 396 kts 302°
2026-04-29 17:38 48.23636 -124.45048 30356 ft 397 kts 302°
2026-04-29 17:39 48.26230 -124.52353 30344 ft 397 kts 300°
2026-04-29 17:39 48.27106 -124.56282 30341 ft 400 kts 286°
2026-04-29 17:39 48.27176 -124.60443 30346 ft 405 kts 270°
2026-04-29 17:39 48.26420 -124.64530 30348 ft 412 kts 253°
2026-04-29 17:40 48.24885 -124.68187 30350 ft 421 kts 237°
2026-04-29 17:40 48.22676 -124.71124 30345 ft 431 kts 220°
2026-04-29 17:40 48.19979 -124.73093 30343 ft 442 kts 204°
2026-04-29 17:41 48.13782 -124.74833 30345 ft 460 kts 185°
2026-04-29 17:41 48.10581 -124.74366 30353 ft 467 kts 169°
2026-04-29 17:41 48.07520 -124.72685 30358 ft 473 kts 153°
2026-04-29 17:41 48.04806 -124.69887 30359 ft 477 kts 136°
2026-04-29 17:42 48.02634 -124.66171 30364 ft 480 kts 121°
2026-04-29 17:42 48.01129 -124.61742 30365 ft 479 kts 105°
2026-04-29 17:42 48.00397 -124.56915 30368 ft 476 kts 91°
2026-04-29 17:43 48.00538 -124.47167 30362 ft 467 kts 78°
2026-04-29 17:43 48.01501 -124.37654 30065 ft 459 kts 74°
2026-04-29 17:43 48.02079 -124.32987 29659 ft 455 kts 73°
2026-04-29 17:44 48.02679 -124.28389 29099 ft 451 kts 73°
2026-04-29 17:44 48.03276 -124.23809 28484 ft 447 kts 73°
2026-04-29 17:44 48.03864 -124.19274 27861 ft 443 kts 73°
2026-04-29 17:44 48.04444 -124.14779 27235 ft 439 kts 73°
2026-04-29 17:45 48.05001 -124.10340 26612 ft 435 kts 73°
2026-04-29 17:45 48.05542 -124.05921 25985 ft 431 kts 74°
2026-04-29 17:45 48.06068 -124.01537 25348 ft 427 kts 74°
2026-04-29 17:45 48.06571 -123.97185 24702 ft 423 kts 75°
2026-04-29 17:46 48.07057 -123.92888 24055 ft 419 kts 75°
2026-04-29 17:46 48.07524 -123.88603 23408 ft 415 kts 76°
2026-04-29 17:46 48.07973 -123.84363 22849 ft 411 kts 76°
2026-04-29 17:46 48.08401 -123.80165 22387 ft 407 kts 77°
2026-04-29 17:47 48.08809 -123.76026 21874 ft 402 kts 77°
2026-04-29 17:47 48.09199 -123.71910 21358 ft 398 kts 77°
2026-04-29 17:47 48.09569 -123.67835 20854 ft 393 kts 78°
2026-04-29 17:47 48.09922 -123.63803 20336 ft 389 kts 78°
2026-04-29 17:48 48.10258 -123.59827 19848 ft 385 kts 79°
2026-04-29 17:48 48.10579 -123.55876 19351 ft 381 kts 79°
2026-04-29 17:48 48.10886 -123.51965 18837 ft 377 kts 79°
2026-04-29 17:48 48.11178 -123.48085 18334 ft 374 kts 80°
2026-04-29 17:49 48.11453 -123.44258 17834 ft 370 kts 81°
2026-04-29 17:49 48.11715 -123.40446 17345 ft 367 kts 81°
2026-04-29 17:49 48.11965 -123.36667 16847 ft 364 kts 82°
2026-04-29 17:49 48.12198 -123.32918 16351 ft 361 kts 82°
2026-04-29 17:50 48.12419 -123.29213 15851 ft 358 kts 82°
2026-04-29 17:50 48.12626 -123.25519 15352 ft 355 kts 83°
2026-04-29 17:50 48.12823 -123.21852 14808 ft 352 kts 83°
2026-04-29 17:50 48.13005 -123.18214 14359 ft 350 kts 84°
2026-04-29 17:51 48.13171 -123.14615 13884 ft 347 kts 85°
2026-04-29 17:51 48.13330 -123.11035 13424 ft 344 kts 85°
2026-04-29 17:51 48.13476 -123.07482 12957 ft 340 kts 86°
2026-04-29 17:51 48.13613 -123.03963 12492 ft 337 kts 86°
2026-04-29 17:52 48.13735 -123.00485 11980 ft 335 kts 87°
2026-04-29 17:52 48.13812 -122.98162 11630 ft 333 kts 87°
2026-04-29 17:52 48.13939 -122.93648 11253 ft 315 kts 88°
2026-04-29 17:52 48.14011 -122.90456 10963 ft 301 kts 89°
2026-04-29 17:53 48.14075 -122.87362 10655 ft 294 kts 89°
2026-04-29 17:53 48.14141 -122.84335 10349 ft 289 kts 89°
2026-04-29 17:53 48.14210 -122.81346 10038 ft 286 kts 89°
2026-04-29 17:53 48.14274 -122.78389 9682 ft 285 kts 89°
2026-04-29 17:54 48.14329 -122.75433 9359 ft 284 kts 89°
2026-04-29 17:54 48.14381 -122.72493 9066 ft 283 kts 89°
2026-04-29 17:54 48.14428 -122.69562 8770 ft 281 kts 89°
2026-04-29 17:54 48.14476 -122.66653 8466 ft 280 kts 89°
2026-04-29 17:55 48.14536 -122.63747 8167 ft 279 kts 88°
2026-04-29 17:55 48.14589 -122.60862 7862 ft 275 kts 89°
2026-04-29 17:55 48.14638 -122.58026 7564 ft 272 kts 89°
2026-04-29 17:55 48.14691 -122.55224 7312 ft 268 kts 89°
2026-04-29 17:56 48.14737 -122.52470 7041 ft 265 kts 89°
2026-04-29 17:56 48.14787 -122.49748 6703 ft 257 kts 88°
2026-04-29 17:56 48.14848 -122.47088 6402 ft 254 kts 88°
2026-04-29 17:56 48.14898 -122.44462 6098 ft 251 kts 89°
2026-04-29 17:57 48.14940 -122.41880 5809 ft 246 kts 88°
2026-04-29 17:57 48.14992 -122.39345 5611 ft 243 kts 88°
2026-04-29 17:57 48.15036 -122.36844 5376 ft 238 kts 89°
2026-04-29 17:57 48.15064 -122.35198 5219 ft 238 kts 89°
2026-04-29 17:58 48.14630 -122.32065 4893 ft 228 kts 117°
2026-04-29 17:58 48.13566 -122.30370 4856 ft 225 kts 144°
2026-04-29 17:58 48.12120 -122.29538 4889 ft 224 kts 165°
2026-04-29 17:58 48.10583 -122.29212 4801 ft 223 kts 173°
2026-04-29 17:59 48.09049 -122.29058 4554 ft 220 kts 175°
2026-04-29 17:59 48.07539 -122.28945 4298 ft 217 kts 177°
2026-04-29 17:59 48.06035 -122.28892 4023 ft 215 kts 178°
2026-04-29 17:59 48.04544 -122.28869 3766 ft 213 kts 179°
2026-04-29 18:00 48.03070 -122.28841 3527 ft 209 kts 179°
2026-04-29 18:00 48.01717 -122.28805 3330 ft 188 kts 179°
2026-04-29 18:00 48.00439 -122.28768 3037 ft 181 kts 179°
2026-04-29 18:00 47.99194 -122.28734 2757 ft 177 kts 179°
2026-04-29 18:01 47.97976 -122.28706 2479 ft 175 kts 180°
2026-04-29 18:01 47.96768 -122.28680 2200 ft 173 kts 180°
2026-04-29 18:01 47.95562 -122.28652 1875 ft 175 kts 180°
2026-04-29 18:01 47.94341 -122.28631 1394 ft 175 kts 180°
2026-04-29 18:02 47.93133 -122.28610 980 ft 172 kts 180°
2026-04-29 18:02 47.91949 -122.28580 663 ft 166 kts 180°
2026-04-29 18:02 47.90827 -122.28557 626 ft 157 kts 180°
2026-04-29 18:02 47.89877 -122.28532 624 ft 98 kts 178°
2026-04-29 18:03 47.89547 -122.28530 624 ft 5 kts 178°
2026-04-29 18:03 47.89527 -122.28529 624 ft 3 kts 178°